Location: ???????
(55.7027°N, 37.3832°E)
Time: 09:43:07
(UTC+00:00)

Cosmos 2322 Rocket - Pass Details

Date: 14 April 2026
Orbit: 832 x 849 km, 71.0° (Epoch: 10 May)

Event Time Altitude Azimuth Distance (km) Brightness Sun altitude
Rises 23:19:58 0° 323° (NW) 3,393 5.7 -20.8°
Reaches altitude 10° 23:22:38 10° 332° (NNW) 2,457 5.0 -20.6°
Maximum altitude 23:27:47 35° 38° (NE) 1,329 3.8 -20.2°
Drops below altitude 10° 23:32:55 10° 104° (ESE) 2,457 4.8 -19.8°
Sets 23:35:35 0° 113° (ESE) 3,391 5.5 -19.6°
